Location: Passau
(48.5830°N, 13.4830°E)
Time: 15:15:54
(UTC+02:00)

A-11 Canister half - Visible Passes

Search period start: 04 August 2021 00:00
Search period end: 14 August 2021 00:00
Orbit: 1513 x 1687 km, 47.2° (Epoch: 04 August)

Date Brightness Start Highest point End Pass type
(mag) Time Alt. Az. Time Alt. Az. Time Alt. Az.
04 Aug 9.9 00:21:53 10° W 00:30:15 31° SW 00:32:27 28° SSW visible
04 Aug 9.3 21:53:33 10° WNW 22:03:28 68° SSW 22:12:09 15° SE visible
04 Aug 9.9 23:58:51 10° WNW 00:07:24 32° SW 00:10:19 28° SSW visible
05 Aug 9.3 21:30:36 10° W 21:40:32 69° SSW 21:50:03 12° ESE visible
05 Aug 9.9 23:35:51 10° WNW 23:44:32 34° SW 23:48:13 27° S visible
06 Aug 9.3 21:07:40 10° W 21:17:36 71° SSW 21:27:42 10° ESE visible
06 Aug 9.9 23:12:51 10° WNW 23:21:40 36° SW 23:26:10 25° S visible
07 Aug 9.8 22:49:52 10° WNW 22:58:48 38° SW 23:04:12 23° S visible
08 Aug 10.8 01:00:27 10° WSW 01:01:29 10° WSW 01:02:22 10° SW visible
08 Aug 9.8 22:26:53 10° WNW 22:35:55 40° SW 22:42:16 20° SSE visible
09 Aug 10.8 00:35:54 10° WSW 00:38:42 11° WSW 00:40:26 11° SW visible
09 Aug 9.8 22:03:55 10° WNW 22:13:02 42° SW 22:20:23 17° SSE visible
10 Aug 10.8 00:12:08 10° W 00:15:54 13° WSW 00:18:34 11° SW visible
10 Aug 9.8 21:40:57 10° WNW 21:50:09 43° SW 21:58:33 13° SSE visible
10 Aug 10.7 23:48:37 10° W 23:53:06 14° WSW 23:56:44 11° SW visible
11 Aug 9.8 21:18:00 10° WNW 21:27:16 45° SW 21:36:41 10° SSE visible
11 Aug 10.8 23:25:14 10° W 23:30:18 15° SW 23:34:59 11° SSW visible
12 Aug 9.8 20:55:03 10° WNW 21:04:23 47° SW 21:13:53 10° SE visible
12 Aug 10.8 23:01:56 10° W 23:07:30 16° SW 23:13:07 10° SSW visible
13 Aug 10.8 22:38:41 10° W 22:44:41 18° SW 22:50:44 10° SSW visible
